sat.trackr.live / text

‹ back to catalog

TESS

NORAD 43435 · 2018-038A

PAYLOAD ACTIVE UNKNOWN

§ Identity

Operator
Country
US
Launch date
2018-04-18
Launch site
AFETR
Launch vehicle
Mass (kg)
RCS (m²)

External: N2YO · Heavens-Above · Gunter

§ Orbital elements

Epoch: 2026-09-21T14:50:11.752512Z

Period
20,503.95 min
Inclination
56.2338°
Eccentricity
0.4943752
Mean motion
0.07023037 rev/d
Perigee alt
119,093.9 km
Apogee alt
364,454.7 km
Semi-major
248,152.4 km
B*
0.0000e+0
RAAN
32.1610°
Arg perigee
64.1731°
Mean anomaly
11.1423°
Rev number
192

§ Raw data

TESS1 43435U 18038A   26264.61819158 -.00000879  00000+0  00000+0 0  99912 43435  56.2338  32.1610 4943752  64.1731  11.1423  0.07023037  1923

JSON: /api/v1/satellites/43435 · /tle

For live sub-satellite position, see the globe view (requires WebGL).

§ Visibility from observer

Set your observer location to see the next 7 days of passes ≥ 10°. The values pass through the URL so the page stays shareable.

No JS? Fill the form by hand. The geolocation button needs JavaScript.